sat.trackr.live / text

‹ back to catalog

STARLINK-4482

NORAD 53530 · 2022-101D

PAYLOAD ACTIVE UNKNOWN

§ Identity

Operator
Country
US
Launch date
2022-08-19
Launch site
AFETR
Launch vehicle
Mass (kg)
RCS (m²)

Purposes: comms

External: N2YO · Heavens-Above · Gunter

§ Orbital elements

Epoch: 2026-09-20T01:39:27.375840Z

Period
95.44 min
Inclination
53.1608°
Eccentricity
0.0001151
Mean motion
15.08854892 rev/d
Perigee alt
538.9 km
Apogee alt
540.5 km
Semi-major
6,917.8 km
B*
-2.0248e-4
RAAN
281.0782°
Arg perigee
80.6550°
Mean anomaly
279.4571°
Rev number
22,550

§ Raw data

STARLINK-44821 53530U 22101D   26263.06906685 -.00003510  00000+0 -20248-3 0  99902 53530  53.1608 281.0782 0001151  80.6550 279.4571 15.08854892225500

JSON: /api/v1/satellites/53530 · /tle

For live sub-satellite position, see the globe view (requires WebGL).

§ Visibility from observer

Set your observer location to see the next 7 days of passes ≥ 10°. The values pass through the URL so the page stays shareable.

No JS? Fill the form by hand. The geolocation button needs JavaScript.